Regional Weather Roundup
Issued by NWS

Home | Current Version | Previous Version | Text Only | Print | Product List | Glossary On
Versions: 1 2 3 4 5 6 7 8 9 10 11 12 13 14 15 16 17 18 19 20 21 22 23 24 25 26 27 28 29 30 31 32 33 34 35 36 37 38 39 40 41 42 43 44 45 46 47 48 49 50
769
ASUS43 KIND 150259
RWRIN

WEATHER ROUNDUP FOR INDIANA
NATIONAL WEATHER SERVICE INDIANAPOLIS IN
1100 PM EDT FRI MAY 14 2021

NOTE: "FAIR" INDICATES FEW OR NO CLOUDS BELOW 12,000 FEET WITH NO
SIGNIFICANT WEATHER AND/OR OBSTRUCTIONS TO VISIBILITY.

* - STATION DOES NOT REPORT WEATHER SUCH AS PRECIPITATION OR FOG.

+ - STATION NOT QUALITY CONTROLLED BY THE NATIONAL WEATHER SERVICE.
    USE DATA WITH CAUTION...ESPECIALLY DEWPOINT AND RELATIVE
    HUMIDITY OBSERVATIONS.

INZ001>003-010>013-019-020-150400-
NORTHWEST INDIANA

CITY           SKY/WX    TMP DP  RH WIND       PRES   REMARKS
GARY /AIRPORT/ CLEAR     52  37  58 SE3       30.24S
MICHIGAN CITY+ MOCLDY    50  36  57 CALM      30.25S
MONTICELLO +   MOCLDY    55  36  48 CALM      30.25S
RENSSELAER +   MOCLDY    55  34  44 CALM      30.25S

$$

LMZ046-743>745-150400-
SOUTHERN LAKE MICHIGAN

STATION/POSITION TIME  TEMP    WIND        PRES    WAVE
                       AIR SEA DIR/SP/G            HT
                 (UTC) (F)     (DEG/KT/KT) (MB)    (FT)
BURNS HARBOR     0240   62     130/  1/  4 1024.4R
MICHIGAN CITY    0230   61     130/  6/  6 1024.0F

$$

INZ004-005-014>016-021>024-150400-
NORTH CENTRAL INDIANA

CITY           SKY/WX    TMP DP  RH WIND       PRES   REMARKS
GOSHEN         PTCLDY    52  37  56 CALM      30.25R
PERU/GRISSOM   PTCLDY    54  37  53 CALM      30.25R
ROCHESTER +    PTCLDY    55  39  54 CALM      30.26R
SOUTH BEND     MOCLDY    51  34  52 CALM      30.26R
WARSAW +       MOCLDY    59  32  36 CALM      30.26R

$$

INZ006>009-017-018-025>027-150400-
NORTHEAST INDIANA

CITY           SKY/WX    TMP DP  RH WIND       PRES   REMARKS
FORT WAYNE     PTCLDY    51  40  65 SW5       30.26R
KENDALLVILLE + FAIR      53  36  54 CALM      30.25S

$$

INZ028-029-035-036-043>045-051>053-150400-
WEST CENTRAL INDIANA

CITY           SKY/WX    TMP DP  RH WIND       PRES   REMARKS
CRAWFORDSVL +  PTCLDY    51  40  67 CALM      30.26S
LAFAYETTE      PTCLDY    55  41  59 CALM      30.25R
TERRE HAUTE    PTCLDY    51  42  71 CALM      30.27R

$$

INZ030>032-037>040-046>048-054>057-064-065-150400-
CENTRAL INDIANA

CITY           SKY/WX    TMP DP  RH WIND       PRES   REMARKS
ANDERSON +     CLEAR     52  35  53 CALM      30.27S
INDIANAPOLIS   MOCLDY    60  32  34 S3        30.26R
-EAGLE CREEK   PTCLDY    55  45  68 CALM      30.26R
KOKOMO +       PTCLDY    55  44  66 CALM      30.27S
MT COMFORT *+  PTCLDY    54  41  62 CALM      30.27S
SHELBYVILLE    CLEAR     54  38  54 CALM      30.26R

$$

INZ033-034-041-042-049-050-058-059-150400-
EAST CENTRAL INDIANA

CITY           SKY/WX    TMP DP  RH WIND       PRES   REMARKS
MUNCIE         CLEAR     57  34  41 CALM      30.26S
PORTLAND +     FAIR      54  34  47 CALM      30.27S
RICHMOND +     FAIR      52  37  58 CALM      30.28S

$$

INZ060-061-067>069-081>083-085>088-150400-
SOUTHWEST INDIANA

CITY           SKY/WX    TMP DP  RH WIND       PRES   REMARKS
EVANSVILLE     CLEAR     55  41  59 CALM      30.26R
HUNTINGBURG +  CLEAR     54  40  59 CALM      30.27R

$$

INZ062-063-066-070>080-084-089>092-150400-
SOUTH CENTRAL AND SOUTHEAST INDIANA

CITY           SKY/WX    TMP DP  RH WIND       PRES   REMARKS
BLOOMINGTON    CLEAR     50  39  66 CALM      30.27R
MADISON *+     CLEAR     50  43  76 CALM      30.29S

$$





USA.gov is the U.S. government's official web portal to all federal, state and local government web resources and services.